Location: Betpouey
(42.8833°N, 0.0333°E)
Time: 04:29:49
(UTC+00:00)

Meteor 2-13 Rocket - Pass Details

Date: 27 June 2021
Orbit: 935 x 958 km, 82.5° (Epoch: 26 July)

Event Time Altitude Azimuth Distance (km) Brightness Sun altitude
Exits shadow 23:09:02 36° 124° (ESE) 1,482 5.1 -22.7°
Maximum altitude 23:10:34 42° 90° (E) 1,345 5.1 -22.7°
Drops below altitude 10° 23:16:18 10° 22° (NNE) 2,696 7.6 -23.0°
Sets 23:18:55 0° 15° (NNE) 3,644 8.5 -23.1°
